| time (UTC) | temp F | wind direction | speed MPH | gust MPH | rain 1hr in | rain 24hr in | rain mn in | humidity % | barometer mb |
| 20260902073029 | 90 | 170 | 0.0 | 0.0 | 0.00 | 0.22 | 0.00 | 51 | 968.0 |
| 20260902071535 | 90 | 169 | 0.0 | 0.0 | 0.00 | 0.22 | 0.00 | 51 | 967.9 |
| 20260902070024 | 90 | 169 | 0.0 | 0.0 | 0.00 | 0.22 | 0.00 | 49 | 967.8 |
| 20260902064525 | 90 | 169 | 0.0 | 0.0 | 0.00 | 0.22 | 0.22 | 49 | 967.7 |
| 20260902063029 | 91 | 169 | 0.0 | 0.0 | 0.00 | 0.22 | 0.22 | 48 | 967.7 |
| 20260902061539 | 91 | 170 | 0.0 | 0.0 | 0.00 | 0.22 | 0.22 | 48 | 967.8 |
| 20260902060024 | 91 | 170 | 0.0 | 0.0 | 0.00 | 0.22 | 0.22 | 47 | 967.8 |
| 20260902054522 | 91 | 170 | 0.0 | 0.0 | 0.00 | 0.22 | 0.22 | 45 | 967.9 |
| 20260902053021 | 92 | 170 | 0.0 | 0.0 | 0.00 | 0.22 | 0.22 | 44 | 967.8 |
| 20260902051522 | 92 | 169 | 0.0 | 0.0 | 0.00 | 0.22 | 0.22 | 41 | 967.7 |
| 20260902050022 | 93 | 169 | 0.0 | 0.0 | 0.00 | 0.22 | 0.22 | 41 | 967.7 |
| 20260902044521 | 93 | 170 | 0.0 | 0.0 | 0.00 | 0.22 | 0.22 | 40 | 967.6 |
| 20260902043020 | 93 | 170 | 0.0 | 0.0 | 0.00 | 0.22 | 0.22 | 40 | 967.5 |
| 20260902041520 | 94 | 170 | 0.0 | 0.0 | 0.00 | 0.22 | 0.22 | 40 | 967.5 |
| 20260902040020 | 94 | 170 | 0.0 | 0.0 | 0.00 | 0.22 | 0.22 | 40 | 967.3 |
| 20260902034520 | 94 | 170 | 0.0 | 0.0 | 0.00 | 0.22 | 0.22 | 39 | 967.2 |
| 20260902033019 | 94 | 170 | 0.0 | 0.0 | 0.00 | 0.22 | 0.22 | 38 | 966.9 |
| 20260902031518 | 95 | 169 | 0.0 | 0.0 | 0.00 | 0.22 | 0.22 | 38 | 966.6 |
| 20260902030018 | 94 | 170 | 0.0 | 0.0 | 0.00 | 0.22 | 0.22 | 39 | 966.3 |
| 20260902024521 | 95 | 170 | 0.0 | 0.0 | 0.00 | 0.22 | 0.22 | 39 | 966.3 |
| 20260902023017 | 94 | 170 | 0.0 | 0.0 | 0.00 | 0.22 | 0.22 | 39 | 966.1 |
| 20260902021517 | 95 | 170 | 0.0 | 0.0 | 0.00 | 0.22 | 0.22 | 39 | 966.0 |
| 20260902020021 | 95 | 170 | 0.0 | 0.0 | 0.00 | 0.22 | 0.22 | 38 | 965.9 |
| 20260902014517 | 95 | 169 | 0.0 | 0.0 | 0.00 | 0.22 | 0.22 | 39 | 965.8 |
| 20260902013014 | 96 | 169 | 0.0 | 0.0 | 0.00 | 0.22 | 0.22 | 37 | 965.8 |
| 20260902011513 | 96 | 169 | 0.0 | 0.0 | 0.00 | 0.22 | 0.22 | 37 | 965.9 |
| 20260902010017 | 97 | 169 | 0.0 | 0.0 | 0.00 | 0.22 | 0.22 | 38 | 966.1 |
| 20260902004511 | 97 | 170 | 0.0 | 0.0 | 0.00 | 0.22 | 0.22 | 36 | 966.2 |
| 20260902003008 | 97 | 160 | 0.0 | 0.0 | 0.00 | 0.22 | 0.22 | 39 | 966.3 |
| 20260902001507 | 97 | 161 | 0.0 | 0.0 | 0.00 | 0.22 | 0.22 | 38 | 966.4 |
| 20260902000007 | 97 | 188 | 0.0 | 6.0 | 0.03 | 0.22 | 0.22 | 39 | 966.4 |
| 20260901234506 | 97 | 213 | 4.0 | 10.0 | 0.03 | 0.22 | 0.22 | 39 | 966.5 |
| 20260901233007 | 98 | 192 | 0.0 | 8.0 | 0.12 | 0.22 | 0.22 | 39 | 966.5 |
| 20260901231503 | 97 | 193 | 4.0 | 10.0 | 0.12 | 0.22 | 0.22 | 40 | 966.7 |
| 20260901230101 | 96 | 73 | 0.0 | 0.0 | 0.09 | 0.19 | 0.19 | 41 | 966.8 |
| 20260901224600 | 97 | 138 | 3.0 | 12.0 | 0.09 | 0.23 | 0.19 | 42 | 966.9 |
| 20260901223059 | 98 | 122 | 0.0 | 0.0 | 0.00 | 0.14 | 0.10 | 41 | 967.0 |
| 20260901221557 | 97 | 122 | 0.0 | 6.0 | 0.03 | 0.14 | 0.10 | 41 | 967.3 |
| 20260901220054 | 96 | 146 | 0.0 | 11.0 | 0.03 | 0.14 | 0.10 | 42 | 967.5 |
| 20260901214554 | 95 | 130 | 0.0 | 9.0 | 0.03 | 0.14 | 0.10 | 44 | 967.5 |
| 20260901213111 | 97 | 181 | 2.0 | 9.0 | 0.03 | 0.14 | 0.10 | 42 | 967.9 |
| 20260901211547 | 95 | 163 | 0.0 | 6.0 | 0.00 | 0.11 | 0.07 | 44 | 968.1 |
| 20260901210043 | 95 | 105 | 0.0 | 7.0 | 0.00 | 0.11 | 0.07 | 44 | 968.4 |
| 20260901204547 | 94 | 67 | 0.0 | 4.0 | 0.00 | 0.20 | 0.07 | 46 | 968.5 |
| 20260901203038 | 94 | 153 | 0.0 | 3.0 | 0.02 | 0.20 | 0.07 | 46 | 968.8 |
| 20260901201539 | 94 | 209 | 0.0 | 8.0 | 0.02 | 0.20 | 0.07 | 46 | 969.0 |
| 20260901200038 | 93 | 165 | 0.0 | 9.0 | 0.02 | 0.20 | 0.07 | 47 | 969.2 |
| 20260901194532 | 93 | 190 | 1.0 | 9.0 | 0.03 | 0.36 | 0.07 | 48 | 969.4 |
| 20260901193031 | 93 | 123 | 0.0 | 0.0 | 0.03 | 0.34 | 0.05 | 47 | 969.6 |
| 20260901191529 | 93 | 119 | 0.0 | 0.0 | 0.03 | 0.34 | 0.05 | 49 | 969.7 |
| 20260901190026 | 91 | 196 | 1.0 | 7.0 | 0.04 | 0.34 | 0.05 | 51 | 970.1 |
| 20260901184535 | 90 | 218 | 0.0 | 6.0 | 0.04 | 0.35 | 0.04 | 51 | 970.3 |
| 20260901183022 | 90 | 134 | 1.0 | 7.0 | 0.02 | 0.33 | 0.02 | 52 | 970.5 |
| 20260901181519 | 88 | 201 | 1.0 | 8.0 | 0.02 | 0.33 | 0.02 | 55 | 970.5 |
| 20260901180018 | 88 | 130 | 2.0 | 9.0 | 0.01 | 0.32 | 0.01 | 54 | 970.6 |
| 20260901174519 | 88 | 176 | 0.0 | 7.0 | 0.00 | 0.31 | 0.00 | 55 | 970.8 |
| 20260901173016 | 88 | 170 | 0.0 | 7.0 | 0.00 | 0.31 | 0.00 | 54 | 970.8 |
| 20260901171514 | 87 | 156 | 0.0 | 8.0 | 0.00 | 0.31 | 0.00 | 56 | 970.9 |
| 20260901170013 | 85 | 196 | 3.0 | 7.0 | 0.00 | 0.31 | 0.00 | 58 | 970.8 |
| 20260901164512 | 87 | 172 | 1.0 | 7.0 | 0.00 | 0.32 | 0.00 | 57 | 970.7 |
| 20260901163013 | 86 | 82 | 0.0 | 3.0 | 0.00 | 0.32 | 0.00 | 57 | 970.6 |
| 20260901161507 | 86 | 82 | 0.0 | 0.0 | 0.00 | 0.32 | 0.00 | 57 | 970.6 |
| 20260901160005 | 84 | 82 | 0.0 | 6.0 | 0.00 | 0.32 | 0.00 | 57 | 970.5 |
| 20260901154502 | 84 | 76 | 0.0 | 6.0 | 0.00 | 0.32 | 0.00 | 57 | 970.4 |
| 20260901153102 | 83 | 87 | 0.0 | 0.0 | 0.00 | 0.32 | 0.00 | 59 | 970.3 |
| 20260901151558 | 83 | 82 | 0.0 | 0.0 | 0.00 | 0.32 | 0.00 | 62 | 970.3 |
| 20260901150058 | 82 | 82 | 0.0 | 0.0 | 0.00 | 0.32 | 0.00 | 65 | 970.3 |
| 20260901144552 | 81 | 82 | 0.0 | 0.0 | 0.00 | 0.37 | 0.00 | 67 | 970.3 |
| 20260901143048 | 80 | 82 | 0.0 | 0.0 | 0.00 | 0.37 | 0.00 | 69 | 970.1 |
| 20260901141547 | 79 | 82 | 0.0 | 0.0 | 0.00 | 0.37 | 0.00 | 71 | 970.2 |
| 20260901140047 | 79 | 82 | 0.0 | 0.0 | 0.00 | 0.37 | 0.00 | 72 | 970.2 |
| 20260901134600 | 78 | 82 | 0.0 | 0.0 | 0.00 | 0.39 | 0.00 | 74 | 970.1 |
| 20260901133045 | 77 | 82 | 0.0 | 0.0 | 0.00 | 0.39 | 0.00 | 75 | 969.9 |
| 20260901131543 | 77 | 82 | 0.0 | 0.0 | 0.00 | 0.39 | 0.00 | 75 | 969.6 |
| 20260901130042 | 76 | 82 | 0.0 | 0.0 | 0.00 | 0.39 | 0.00 | 76 | 969.7 |
| 20260901124545 | 76 | 82 | 0.0 | 0.0 | 0.00 | 0.39 | 0.00 | 75 | 969.7 |
| 20260901123041 | 76 | 82 | 0.0 | 0.0 | 0.00 | 0.39 | 0.00 | 75 | 969.5 |
| 20260901121539 | 76 | 82 | 0.0 | 0.0 | 0.00 | 0.39 | 0.00 | 75 | 969.4 |
| 20260901120035 | 77 | 82 | 0.0 | 0.0 | 0.00 | 0.39 | 0.00 | 75 | 969.2 |
| 20260901114550 | 77 | 82 | 0.0 | 0.0 | 0.00 | 0.39 | 0.00 | 74 | 969.2 |
| 20260901113032 | 77 | 82 | 0.0 | 0.0 | 0.00 | 0.39 | 0.00 | 73 | 969.0 |
| 20260901111532 | 78 | 82 | 0.0 | 0.0 | 0.00 | 0.39 | 0.00 | 73 | 968.9 |
| 20260901110031 | 78 | 82 | 0.0 | 0.0 | 0.00 | 0.39 | 0.00 | 73 | 968.9 |
| 20260901104530 | 77 | 82 | 0.0 | 0.0 | 0.00 | 0.39 | 0.00 | 73 | 969.0 |
| 20260901103029 | 77 | 82 | 0.0 | 0.0 | 0.00 | 0.39 | 0.00 | 73 | 969.2 |
| 20260901101528 | 78 | 82 | 0.0 | 0.0 | 0.00 | 0.39 | 0.00 | 73 | 969.2 |
| 20260901100028 | 78 | 82 | 0.0 | 0.0 | 0.00 | 0.39 | 0.00 | 73 | 969.1 |
| 20260901094528 | 78 | 82 | 0.0 | 0.0 | 0.00 | 0.41 | 0.00 | 73 | 969.2 |
| 20260901093027 | 77 | 82 | 0.0 | 0.0 | 0.00 | 0.41 | 0.00 | 73 | 969.3 |
| 20260901091526 | 78 | 82 | 0.0 | 0.0 | 0.00 | 0.41 | 0.00 | 72 | 969.3 |
| 20260901090045 | 78 | 82 | 0.0 | 0.0 | 0.00 | 0.41 | 0.00 | 71 | 969.4 |
| 20260901084523 | 78 | 82 | 0.0 | 0.0 | 0.00 | 0.53 | 0.00 | 70 | 969.4 |
| 20260901083022 | 79 | 82 | 0.0 | 0.0 | 0.00 | 0.53 | 0.00 | 70 | 969.4 |
| 20260901081532 | 79 | 82 | 0.0 | 0.0 | 0.00 | 0.53 | 0.00 | 70 | 969.4 |
| 20260901080025 | 79 | 82 | 0.0 | 0.0 | 0.00 | 0.53 | 0.00 | 70 | 969.4 |
| 20260901074520 | 79 | 82 | 0.0 | 0.0 | 0.00 | 0.63 | 0.00 | 70 | 969.3 |